Startpagina
METAR-TAF:

METAR-TAF

Vliegvelden :

Internationale luchthaven Koning Abdoel Aziz

Djedda, Saoedi-Arabië

breedte: 21-42N, lengte: 039-11E, hoogte: 15 m

Actueel weer

Dit bericht is 36 minuten geleden gemaakt, om 10:00 UTC
Wind 7 kt uit het westzuidwesten
Temperatuur 35°C
Vochtigheid 60%
Druk 1007 hPa
Zicht 10 km of meer
geen wolken onder 1500 m en geen cumulonimbus

METAR: OEJN 191000Z 25007KT CAVOK 35/26 Q1007 NOSIG

Tijdstip: 13:36 (10:36 UTC)

Verwachting

Dit bericht is 5 uur en het 36 minuten geleden gemaakt, om 05:00 UTC
Verwachting geldig van 19 om 06 UTC tot 20 om 12 UTC
Wind 15 kt uit het westen
Zicht 10 km of meer
Weinig wolken op 4000 ft
Verspreide wolken op 10000 ft
Wijzigt naar
van 19 om 18 UTC tot 19 om 20 UTC
Wind 6 kt uit het noorden

TAF: OEJN 190500Z 1906/2012 27015KT 9999 FEW040 SCT100 BECMG 1918/1920 01006KT

Waarnemingen en weersverwachtingen van meer dan 4000 vliegvelden (METAR en TAF).

De beschikbare stations zijn de gele en rode punten op de kaart.

Ga met uw muis naar het station om de naam te zien.

Klik dan om waarnemingen en weersverwachtingen te zien.

kaart wijzigen: klik op de groene knoppen met een zwart kruis om in te zoomen, op de groene knop met een streepje om uit te zoomen of op de groene pijlen voor aangrenzende kaarten.


METAR-TAF: